Tracking 19212 objects as of 17-Jul-2018
HD Live streaming from Space Station
objects crossing your sky now

FENGYUN 1C DEB


10-day predictions


NORAD ID: 30398
Int'l Code: 1999-025ADM
Launch date: May 10, 1999
Source: People's Republic of China (PRC)
Launch site: Taiyaun Space Center, China (TSC)

Note: This is SATELLITE DEBRIS
aabbcc
Your satellite tracking list
Your tracking list is empty




NASA's NSSDC Master Catalog

Two Line Element Set (TLE):
1 30398U 99025ADM 18197.94578118 +.00000004 +00000-0 +46115-4 0  9992
2 30398 099.7685 336.5124 0179533 102.6292 022.8897 13.75536945575307
Source of the keplerian elements: AFSPC